^^
Grace C. Lehan Memorial Weather Station Historical Data
 
Daily Summary for October 22, 2018 Units:  English    Metric   Both
Daily Weekly Monthly Yearly Custom
  Current: High: Low: Average:
Temperature: 32 °F 36.6 °F 31.5 °F 32.9 °F
Dew Point: 29.4 °F 29.4 °F 28.3 °F 28.9 °F
Humidity: 90% 90% 72% 85%
Wind Speed: 0mph 0mph 0mph 0mph
Wind Gust: 0mph 1mph - -
WindCalm - -
Pressure: 30.14 in 30.14 in 30.10 in -
Precipitation: 0 in      
Historical Graphs
 
 
Tabular Data for October 22, 2018
Time Temperature Dew Point Pressure Wind Wind Speed Wind Gust Humidity Rainfall Rate (Hourly) solar
00:04 36.6 °F 28.44 °F 30.10 in Calm     72% 0 in 0.00 W/m2
00:09 36.4 °F 28.59 °F 30.11 in Calm     73% 0 in 0.00 W/m2
00:14 36.1 °F 28.3 °F 30.10 in Calm     73% 0 in 0.00 W/m2
00:19 35.9 °F 28.43 °F 30.10 in Calm   1 mph 74% 0 in 0.00 W/m2
00:24 35.6 °F 28.47 °F 30.11 in Calm   1 mph 75% 0 in 0.00 W/m2
00:29 35.3 °F 28.5 °F 30.10 in Calm   1 mph 76% 0 in 0.00 W/m2
00:34 35.2 °F 28.73 °F 30.11 in Calm     77% 0 in 0.00 W/m2
00:39 35 °F 28.53 °F 30.11 in Calm     77% 0 in 0.00 W/m2
00:44 34.7 °F 28.55 °F 30.11 in Calm     78% 0 in 0.00 W/m2
00:49 34.6 °F 28.46 °F 30.11 in Calm     78% 0 in 0.00 W/m2
00:54 34.3 °F 28.48 °F 30.11 in Calm     79% 0 in 0.00 W/m2
00:59 34.2 °F 28.69 °F 30.11 in Calm     80% 0 in 0.00 W/m2
01:04 34.1 °F 28.89 °F 30.11 in Calm     81% 0 in 0.00 W/m2
01:09 34 °F 28.79 °F 30.11 in Calm     81% 0 in 0.00 W/m2
01:14 33.8 °F 28.9 °F 30.12 in Calm     82% 0 in 0.00 W/m2
01:19 33.7 °F 28.8 °F 30.12 in Calm     82% 0 in 0.00 W/m2
01:24 33.7 °F 29.1 °F 30.12 in Calm     83% 0 in 0.00 W/m2
01:29 33.5 °F 29.19 °F 30.12 in Calm     84% 0 in 0.00 W/m2
01:34 33.3 °F 29 °F 30.12 in Calm     84% 0 in 0.00 W/m2
01:39 33 °F 28.7 °F 30.13 in Calm     84% 0 in 0.00 W/m2
01:44 32.8 °F 28.8 °F 30.13 in Calm     85% 0 in 0.00 W/m2
01:49 32.8 °F 29.08 °F 30.13 in Calm     86% 0 in 0.00 W/m2
01:54 32.7 °F 28.98 °F 30.13 in Calm   1 mph 86% 0 in 0.00 W/m2
01:59 32.7 °F 28.98 °F 30.13 in Calm   1 mph 86% 0 in 0.00 W/m2
02:04 32.7 °F 28.98 °F 30.13 in Calm     86% 0 in 0.00 W/m2
02:09 32.7 °F 29.27 °F 30.13 in Calm     87% 0 in 0.00 W/m2
02:14 32.7 °F 29.27 °F 30.13 in Calm     87% 0 in 0.00 W/m2
02:19 32.6 °F 29.17 °F 30.13 in Calm     87% 0 in 0.00 W/m2
02:24 32.6 °F 29.17 °F 30.12 in Calm     87% 0 in 0.00 W/m2
02:29 32.6 °F 29.17 °F 30.13 in Calm     87% 0 in 0.00 W/m2
02:34 32.5 °F 29.07 °F 30.13 in Calm     87% 0 in 0.00 W/m2
02:39 32.4 °F 28.97 °F 30.13 in Calm     87% 0 in 0.00 W/m2
02:44 32.2 °F 28.77 °F 30.13 in Calm     87% 0 in 0.00 W/m2
02:49 32.1 °F 28.68 °F 30.13 in Calm     87% 0 in 0.00 W/m2
02:54 32 °F 28.86 °F 30.12 in Calm     88% 0 in 0.00 W/m2
02:59 32 °F 28.86 °F 30.12 in Calm     88% 0 in 0.00 W/m2
03:04 32 °F 28.86 °F 30.12 in Calm     88% 0 in 0.00 W/m2
03:08 32.1 °F 29.23 °F 30.12 in Calm     89% 0 in 0.00 W/m2
03:14 32.1 °F 28.95 °F 30.12 in Calm     88% 0 in 0.00 W/m2
03:19 32.1 °F 28.95 °F 30.12 in Calm     88% 0 in 0.00 W/m2
03:24 32.1 °F 29.23 °F 30.13 in Calm     89% 0 in 0.00 W/m2
03:29 32 °F 29.13 °F 30.13 in Calm     89% 0 in 0.00 W/m2
03:34 31.9 °F 29.03 °F 30.14 in Calm     89% 0 in 0.00 W/m2
03:39 31.8 °F 28.93 °F 30.14 in Calm     89% 0 in 0.00 W/m2
03:44 31.7 °F 28.84 °F 30.14 in Calm     89% 0 in 0.00 W/m2
03:49 31.6 °F 28.74 °F 30.14 in Calm     89% 0 in 0.00 W/m2
03:54 31.5 °F 28.64 °F 30.14 in Calm     89% 0 in 0.00 W/m2
03:59 31.5 °F 28.64 °F 30.14 in Calm     89% 0 in 0.00 W/m2
04:04 31.5 °F 28.91 °F 30.14 in Calm     90% 0 in 0.00 W/m2
04:09 31.5 °F 28.91 °F 30.14 in Calm     90% 0 in 0.00 W/m2
04:14 31.5 °F 28.91 °F 30.14 in Calm   1 mph 90% 0 in 0.00 W/m2
04:19 31.5 °F 28.91 °F 30.14 in Calm   1 mph 90% 0 in 0.00 W/m2
04:24 31.5 °F 28.91 °F 30.13 in Calm   1 mph 90% 0 in 0.00 W/m2
04:29 31.6 °F 29.01 °F 30.14 in Calm   1 mph 90% 0 in 0.00 W/m2
04:34 31.6 °F 29.01 °F 30.13 in Calm     90% 0 in 0.00 W/m2
04:39 31.6 °F 29.01 °F 30.14 in Calm     90% 0 in 0.00 W/m2
04:44 31.6 °F 29.01 °F 30.14 in Calm     90% 0 in 0.00 W/m2
04:49 31.7 °F 29.11 °F 30.14 in Calm     90% 0 in 0.00 W/m2
04:54 31.9 °F 29.31 °F 30.14 in Calm     90% 0 in 0.00 W/m2
04:59 31.9 °F 29.31 °F 30.14 in Calm     90% 0 in 0.00 W/m2
05:04 32 °F 29.4 °F 30.14 in Calm     90% 0 in 0.00 W/m2
05:09 32 °F 29.4 °F 30.14 in Calm     90% 0 in 0.00 W/m2
05:10 32 °F 29.4 °F 30.14 in Calm     90% 0 in 0.00 W/m2
Grace C. Lehan Memorial Weather Station
Compliments of Weather Underground - 2 mb